Willimantic, CT

12:23 PM EST on December 11, 2019 (GMT -0500)
Windham

Weather History for KIJD - October, 2019

Change the Weather History Date:

Thursday, October 10, 2019

  Actual Average Record
Temperature  
Mean Temperature 53 °F -  
Max Temperature 55 °F 64 °F 84 °F (2011)
Min Temperature 51 °F 37 °F 25 °F (1963)
Degree Days  
Heating Degree Days 12    
Growing Degree Days 3 (Base 50)    
Moisture  
Dew Point 42 °F    
Average Humidity 65    
Maximum Humidity 80    
Minimum Humidity 55    
Precipitation  
Precipitation 0.03 in - - ()
Sea Level Pressure  
Sea Level Pressure 30.24 in    
Wind  
Wind Speed 11 mph ()    
Max Wind Speed 16 mph    
Max Gust Speed 30 mph    
Visibility 9.7 miles    
Events Rain    
Averages and records for this station are not official NWS values.
T = Trace of Precipitation, MM = Missing Value Source: Averaged Metar Reports

Daily Weather History Graph

Daily Weather History Graph

Search for Another Location

Airport or City:

Astronomy

Oct. 10, 2019 Rise Set
Actual Time 6:55 AM EDT 6:15 PM EDT
Civil Twilight 6:27 AM EDT 6:43 PM EDT
Nautical Twilight 5:54 AM EDT 7:15 PM EDT
Astronomical Twilight 5:22 AM EDT 7:47 PM EDT
Moon 5:19 PM EDT (10/10) 3:31 AM EDT (10/10)
Length of Visible Light 12h 16m
Length of Day
11h 20m
Waxing Gibbous, 91% of the Moon is Illuminated
Oct 10
Waxing Gibbous
Oct 13
Full
Oct 21
Last Quarter
Oct 27
New
Nov 4
First Quarter

Hourly Weather History & Observations

Time (EDT) Temp. Dew Point Humidity Pressure Visibility Wind Dir Wind Speed Gust Speed Precip Events Conditions
12:52 AM 53.1 °F 43.0 °F 69% 30.26 in 10.0 mi NNE 11.5 mph - N/A   Scattered Clouds
1:52 AM 53.1 °F 43.0 °F 69% 30.25 in 10.0 mi NNE 9.2 mph 18.4 mph N/A   Mostly Cloudy
2:52 AM 53.1 °F 44.1 °F 71% 30.24 in 10.0 mi NNE 16.1 mph 23.0 mph N/A   Overcast
3:26 AM 53.1 °F 44.1 °F 71% 30.24 in 10.0 mi NNE 11.5 mph 23.0 mph N/A   Overcast
3:52 AM 53.1 °F 44.1 °F 71% 30.24 in 10.0 mi NNE 13.8 mph 21.9 mph N/A   Overcast
4:52 AM 53.1 °F 44.1 °F 71% 30.25 in 10.0 mi NNE 12.7 mph 29.9 mph 0.00 in   Overcast
5:52 AM 53.1 °F 44.1 °F 71% 30.25 in 10.0 mi NNE 13.8 mph 24.2 mph N/A   Overcast
6:52 AM 53.1 °F 42.1 °F 66% 30.25 in 10.0 mi NNE 15.0 mph 27.6 mph N/A   Overcast
7:52 AM 53.1 °F 41.0 °F 64% 30.25 in 10.0 mi NNE 12.7 mph 20.7 mph N/A   Overcast
8:52 AM 54.0 °F 41.0 °F 62% 30.25 in 10.0 mi NNE 13.8 mph 25.3 mph N/A   Overcast
9:52 AM 55.0 °F 41.0 °F 59% 30.25 in 10.0 mi NNE 13.8 mph 26.5 mph 0.00 in Rain Light Rain
10:52 AM 55.0 °F 41.0 °F 59% 30.27 in 10.0 mi NNE 12.7 mph - 0.00 in Rain Light Rain
11:52 AM 54.0 °F 42.1 °F 64% 30.26 in 10.0 mi NNE 12.7 mph 25.3 mph 0.00 in Rain Light Rain
12:52 PM 51.1 °F 45.0 °F 80% 30.24 in 10.0 mi North 11.5 mph - 0.01 in Rain Light Rain
1:52 PM 53.1 °F 46.0 °F 77% 30.22 in 2.0 mi NNE 11.5 mph 19.6 mph 0.01 in   Haze
2:02 PM 54.0 °F 46.0 °F 75% 30.21 in 10.0 mi North 10.4 mph - N/A   Overcast
2:52 PM 54.0 °F 44.1 °F 69% 30.21 in 10.0 mi NNE 12.7 mph - 0.00 in Rain Light Rain
3:52 PM 54.0 °F 43.0 °F 66% 30.21 in 10.0 mi NNE 9.2 mph - 0.01 in   Overcast
4:52 PM 54.0 °F 39.9 °F 59% 30.22 in 10.0 mi North 11.5 mph - 0.00 in Rain Light Rain
5:52 PM 54.0 °F 39.0 °F 57% 30.24 in 10.0 mi NNE 8.1 mph - 0.00 in   Overcast
6:52 PM 54.0 °F 37.9 °F 55% 30.24 in 10.0 mi NNE 11.5 mph - N/A   Overcast
7:52 PM 54.0 °F 37.9 °F 55% 30.23 in 10.0 mi NNE 12.7 mph - N/A   Overcast
8:52 PM 54.0 °F 37.9 °F 55% 30.22 in 10.0 mi NNE 12.7 mph 21.9 mph N/A   Mostly Cloudy
9:52 PM 54.0 °F 39.0 °F 57% 30.22 in 10.0 mi NNE 13.8 mph 21.9 mph N/A   Clear
10:52 PM 53.1 °F 39.9 °F 61% 30.21 in 10.0 mi NNE 15.0 mph - N/A   Clear
11:52 PM 53.1 °F 39.9 °F 61% 30.19 in 10.0 mi NNE 12.7 mph - N/A   Clear